Погода в Винникове

Россия / Амурская область     49°32′15″N   129°17′36″E
темп.,
°C
ветер,
м/с
пор.,
м/с
влажн.,
%
обл.,
%
осадки,
мм/ч
давл.,
гПа
погр.,
м
6 мая, чт
чт600:00+7юв2282100 0.5 99552
03:00+6сз228548 0.6 99615
06:00+6ююз11855 0.0 99735
09:00+11з336398 0.0 998653
12:00+16зсз454270 0.1 9982065
15:00+15з564595 0.2 9981806
18:00+13ссз455447 0.9 10001270
21:00+10сз366494 1.0 1002247
7 мая, пт
пт700:00+7сз33745 0.0 100341
03:00+5сз118251 0.0 100210
06:00+6ссв1180100 0.0 100148
09:00+11св3559100 0.0 1000774
12:00+14всв4644100 0.0 9971781
15:00+13юв5654100 0.1 9951327
18:00+9юв2382100 1.7 994288
21:00+8св3791100 3.6 994541
8 мая, сб
сб800:00+6всв6990100 3.6 993958
03:00+6св5891100 8.9 993992
06:00+5св5895100 2.9 993741
09:00+5св5786100 3.4 995762
12:00+6всв4584100 0.2 995816
15:00+5в3493100 1.1 996756
18:00+5в2392100 1.1 997590
21:00+4св4495100 2.1 998652
9 мая, вс
вс900:00+4ссв3497100 0.1 998565
03:00+4ссв3597100 0.5 997700
06:00+5с4887100 0.1 998517
09:00+8с5672100 0.1 998975
12:00+10с5665100 0.2 9991359
15:00+11ссв2662100 0.3 9991429
18:00+11зсз1262100 0.1 1001124
21:00+7зсз5107191 0.1 1003444
10 мая, пн
пн1000:00+5зсз4882100 0.0 1005291
03:00+4з3685100 0.0 1006212
06:00+4з348599 0.0 1008212
09:00+8з346973 0.0 1008605
12:00+13зсз335496 0.0 10081366
15:00+13св2256100 0.1 10081123
18:00+13всв216072 0.2 1009770
21:00+9вюв2281100 0.4 101128